Location: Hylo
(54.6785°N, 112.2142°W)
Time: 12:17:27
(UTC+00:00)

ACS3 Solar Sail - Pass Details

Date: 27 September 2024
Orbit: 961 x 1035 km, 97.4° (Epoch: 08 October)

Event Time Altitude Azimuth Distance (km) Brightness Sun altitude
Exits shadow 03:27:32 12° 169° (S) 2,684 3.8 -19.3°
Maximum altitude 03:33:35 80° 257° (WSW) 1,058 2.0 -20.1°
Drops below altitude 10° 03:40:02 10° 345° (NNW) 2,835 4.8 -21.0°
Sets 03:42:32 0° 346° (NNW) 3,783 5.5 -21.3°
